OneWeb SL0163

operational
NORAD ID: 48061 Int'l Des: 2021-025 Owner: ONEWEBN Country: UK Constellation: oneweb
LEOCIRCULARPOLARONEWEB_TYPE

Über OneWeb SL0163

Beschreibung wird geladen...

Live-Position

3D-Globus wird geladen...

Nächste Überflüge

Höhenverlauf

Altitude vs Time

uPlot chart will show altitude changes over time

Zweizeiliger Elementsatz

1 48061U 21025V 25304.59045174 -.00000329 00000-0 -93536-3 0 9993
2 48061 87.9038 5.6508 0002130 94.4875 265.6498 13.13469198223678
Epoch: 31. Okt. 2025 • Age: 9 hours

Aktueller Status

Höhe 1211.7 km
Geschwindigkeit 7.25 km/s
Subsatellitenpunkt 16.70°N, 25.26°W
Startdatum 25. März 2021
Alter 4.6 years
Typ internet

Technische Details

Klassifizierung Payload
Masse 148.00 kg
Trockenmasse 140.00 kg
Gesamtmasse 148.00 kg
Länge 1.30 m
Durchmesser 1.00 m
Spannweite 5.00 m
Form Trapezoid+2 pan
Hersteller ONEWUS
Bus-Typ ARROW
Phasenstatus In Orbit
Besitzer/Staat ONEWEBN/UK

Große Konstellationen

Loading constellations...